Year,Month,Day,Hour,Minute,Value (Times are PST for temperature in C)
2018,06,18,00,00,16.40
2018,06,18,00,01,16.40
2018,06,18,00,02,16.40
2018,06,18,00,03,16.40
2018,06,18,00,04,16.30
2018,06,18,00,05,16.30
2018,06,18,00,06,16.30
2018,06,18,00,07,16.30
2018,06,18,00,08,16.30
2018,06,18,00,09,16.30
2018,06,18,00,10,16.20
2018,06,18,00,11,16.20
2018,06,18,00,12,16.20
2018,06,18,00,13,16.20
2018,06,18,00,14,16.10
2018,06,18,00,15,16.10
2018,06,18,00,16,16.10
2018,06,18,00,17,16.10
2018,06,18,00,18,16.10
2018,06,18,00,19,16.10
2018,06,18,00,20,16.10
2018,06,18,00,21,16.10
2018,06,18,00,22,16.10
2018,06,18,00,23,16.10
2018,06,18,00,24,16.10
2018,06,18,00,25,16.10
2018,06,18,00,26,16.10
2018,06,18,00,27,16.10
2018,06,18,00,28,16.10
2018,06,18,00,29,16.10
2018,06,18,00,30,16.10
2018,06,18,00,31,16.10
2018,06,18,00,32,16.10
2018,06,18,00,33,16.10
2018,06,18,00,34,16.10
2018,06,18,00,35,16.10
2018,06,18,00,36,16.10
2018,06,18,00,37,16.10
2018,06,18,00,38,16.10
2018,06,18,00,39,16.00
2018,06,18,00,40,16.00
2018,06,18,00,41,16.00
2018,06,18,00,42,15.90
2018,06,18,00,43,15.90
2018,06,18,00,44,15.90
2018,06,18,00,45,15.90
2018,06,18,00,46,15.90
2018,06,18,00,47,15.80
2018,06,18,00,48,15.80
2018,06,18,00,49,15.80
2018,06,18,00,50,15.80
2018,06,18,00,51,15.80
2018,06,18,00,52,15.70
2018,06,18,00,53,15.70
2018,06,18,00,54,15.70
2018,06,18,00,55,15.70
2018,06,18,00,56,15.70
2018,06,18,00,57,15.70
2018,06,18,00,58,15.60
2018,06,18,00,59,15.60
2018,06,18,01,00,15.60
2018,06,18,01,01,15.60
2018,06,18,01,02,15.60
2018,06,18,01,03,15.60
2018,06,18,01,04,15.50
2018,06,18,01,05,15.50
2018,06,18,01,06,15.50
2018,06,18,01,07,15.50
2018,06,18,01,08,15.40
2018,06,18,01,09,15.40
2018,06,18,01,10,15.40
2018,06,18,01,11,15.40
2018,06,18,01,12,15.40
2018,06,18,01,13,15.30
2018,06,18,01,14,15.30
2018,06,18,01,15,15.30
2018,06,18,01,16,15.30
2018,06,18,01,17,15.20
2018,06,18,01,18,15.20
2018,06,18,01,19,15.10
2018,06,18,01,20,15.10
2018,06,18,01,21,15.10
2018,06,18,01,22,15.00
2018,06,18,01,23,15.00
2018,06,18,01,24,15.00
2018,06,18,01,25,15.00
2018,06,18,01,26,15.00
2018,06,18,01,27,15.00
2018,06,18,01,28,15.00
2018,06,18,01,29,15.00
2018,06,18,01,30,15.00
2018,06,18,01,31,15.00
2018,06,18,01,32,15.00
2018,06,18,01,33,15.00
2018,06,18,01,34,15.00
2018,06,18,01,35,15.00
2018,06,18,01,36,14.90
2018,06,18,01,37,14.90
2018,06,18,01,38,14.90
2018,06,18,01,39,14.90
2018,06,18,01,40,14.80
2018,06,18,01,41,14.80
2018,06,18,01,42,14.80
2018,06,18,01,43,14.80
2018,06,18,01,44,14.80
2018,06,18,01,45,14.80
2018,06,18,01,46,14.70
2018,06,18,01,47,14.70
2018,06,18,01,48,14.70
2018,06,18,01,49,14.70
2018,06,18,01,50,14.70
2018,06,18,01,51,14.70
2018,06,18,01,52,14.60
2018,06,18,01,53,14.60
2018,06,18,01,54,14.60
2018,06,18,01,55,14.60
2018,06,18,01,56,14.60
2018,06,18,01,57,14.60
2018,06,18,01,58,14.60
2018,06,18,01,59,14.60
2018,06,18,02,00,14.60
2018,06,18,02,01,14.60
2018,06,18,02,02,14.60
2018,06,18,02,03,14.50
2018,06,18,02,04,14.50
2018,06,18,02,05,14.50
2018,06,18,02,06,14.50
2018,06,18,02,07,14.40
2018,06,18,02,08,14.40
2018,06,18,02,09,14.40
2018,06,18,02,10,14.40
2018,06,18,02,11,14.40
2018,06,18,02,12,14.30
2018,06,18,02,13,14.30
2018,06,18,02,14,14.30
2018,06,18,02,15,14.30
2018,06,18,02,16,14.30
2018,06,18,02,17,14.30
2018,06,18,02,18,14.20
2018,06,18,02,19,14.20
2018,06,18,02,20,14.20
2018,06,18,02,21,14.20
2018,06,18,02,22,14.20
2018,06,18,02,23,14.20
2018,06,18,02,24,14.20
2018,06,18,02,25,14.20
2018,06,18,02,26,14.20
2018,06,18,02,27,14.20
2018,06,18,02,28,14.10
2018,06,18,02,29,14.10
2018,06,18,02,30,14.10
2018,06,18,02,31,14.10
2018,06,18,02,32,14.10
2018,06,18,02,33,14.10
2018,06,18,02,34,14.00
2018,06,18,02,35,14.00
2018,06,18,02,36,14.00
2018,06,18,02,37,14.00
2018,06,18,02,38,13.90
2018,06,18,02,39,13.90
2018,06,18,02,40,13.90
2018,06,18,02,41,13.90
2018,06,18,02,42,13.90
2018,06,18,02,43,13.90
2018,06,18,02,44,13.90
2018,06,18,02,45,13.90
2018,06,18,02,46,13.90
2018,06,18,02,47,13.90
2018,06,18,02,48,13.90
2018,06,18,02,49,13.90
2018,06,18,02,50,13.90
2018,06,18,02,51,13.80
2018,06,18,02,52,13.80
2018,06,18,02,53,13.80
2018,06,18,02,54,13.80
2018,06,18,02,55,13.80
2018,06,18,02,56,13.80
2018,06,18,02,57,13.80
2018,06,18,02,58,13.80
2018,06,18,02,59,13.80
2018,06,18,03,00,13.80
2018,06,18,03,01,13.70
2018,06,18,03,02,13.70
2018,06,18,03,03,13.70
2018,06,18,03,04,13.70
2018,06,18,03,05,13.70
2018,06,18,03,06,13.70
2018,06,18,03,07,13.70
2018,06,18,03,08,13.60
2018,06,18,03,09,13.60
2018,06,18,03,10,13.60
2018,06,18,03,11,13.60
2018,06,18,03,12,13.60
2018,06,18,03,13,13.60
2018,06,18,03,14,13.60
2018,06,18,03,15,13.60
2018,06,18,03,16,13.60
2018,06,18,03,17,13.50
2018,06,18,03,18,13.50
2018,06,18,03,19,13.50
2018,06,18,03,20,13.50
2018,06,18,03,21,13.50
2018,06,18,03,22,13.50
2018,06,18,03,23,13.50
2018,06,18,03,24,13.50
2018,06,18,03,25,13.40
2018,06,18,03,26,13.40
2018,06,18,03,27,13.40
2018,06,18,03,28,13.40
2018,06,18,03,29,13.40
2018,06,18,03,30,13.40
2018,06,18,03,31,13.40
2018,06,18,03,32,13.40
2018,06,18,03,33,13.40
2018,06,18,03,34,13.40
2018,06,18,03,35,13.40
2018,06,18,03,36,13.40
2018,06,18,03,37,13.40
2018,06,18,03,38,13.40
2018,06,18,03,39,13.40
2018,06,18,03,40,13.40
2018,06,18,03,41,13.40
2018,06,18,03,42,13.40
2018,06,18,03,43,13.40
2018,06,18,03,44,13.40
2018,06,18,03,45,13.40
2018,06,18,03,46,13.40
2018,06,18,03,47,13.40
2018,06,18,03,48,13.40
2018,06,18,03,49,13.30
2018,06,18,03,50,13.30
2018,06,18,03,51,13.30
2018,06,18,03,52,13.30
2018,06,18,03,53,13.30
2018,06,18,03,54,13.30
2018,06,18,03,55,13.30
2018,06,18,03,56,13.30
2018,06,18,03,57,13.30
2018,06,18,03,58,13.20
2018,06,18,03,59,13.20
2018,06,18,04,00,13.20
2018,06,18,04,01,13.20
2018,06,18,04,02,13.20
2018,06,18,04,03,13.20
2018,06,18,04,04,13.20
2018,06,18,04,05,13.20
2018,06,18,04,06,13.20
2018,06,18,04,07,13.10
2018,06,18,04,08,13.10
2018,06,18,04,09,13.10
2018,06,18,04,10,13.10
2018,06,18,04,11,13.00
2018,06,18,04,12,13.00
2018,06,18,04,13,13.00
2018,06,18,04,14,12.90
2018,06,18,04,15,12.90
2018,06,18,04,16,12.90
2018,06,18,04,17,12.90
2018,06,18,04,18,12.80
2018,06,18,04,19,12.80
2018,06,18,04,20,12.80
2018,06,18,04,21,12.80
2018,06,18,04,22,12.80
2018,06,18,04,23,12.70
2018,06,18,04,24,12.70
2018,06,18,04,25,12.70
2018,06,18,04,26,12.70
2018,06,18,04,27,12.60
2018,06,18,04,28,12.60
2018,06,18,04,29,12.60
2018,06,18,04,30,12.60
2018,06,18,04,31,12.50
2018,06,18,04,32,12.50
2018,06,18,04,33,12.50
2018,06,18,04,34,12.40
2018,06,18,04,35,12.40
2018,06,18,04,36,12.40
2018,06,18,04,37,12.40
2018,06,18,04,38,12.40
2018,06,18,04,39,12.30
2018,06,18,04,40,12.30
2018,06,18,04,41,12.30
2018,06,18,04,42,12.30
2018,06,18,04,43,12.30
2018,06,18,04,44,12.30
2018,06,18,04,45,12.20
2018,06,18,04,46,12.20
2018,06,18,04,47,12.20
2018,06,18,04,48,12.20
2018,06,18,04,49,12.20
2018,06,18,04,50,12.10
2018,06,18,04,51,12.10
2018,06,18,04,52,12.10
2018,06,18,04,53,12.10
2018,06,18,04,54,12.10
2018,06,18,04,55,12.10
2018,06,18,04,56,12.10
2018,06,18,04,57,12.10
2018,06,18,04,58,12.00
2018,06,18,04,59,12.00
2018,06,18,05,00,12.00
2018,06,18,05,01,11.90
2018,06,18,05,02,11.90
2018,06,18,05,03,11.90
2018,06,18,05,04,11.90
2018,06,18,05,05,11.90
2018,06,18,05,06,11.90
2018,06,18,05,07,11.80
2018,06,18,05,08,11.80
2018,06,18,05,09,11.80
2018,06,18,05,10,11.80
2018,06,18,05,11,11.80
2018,06,18,05,12,11.80
2018,06,18,05,13,11.80
2018,06,18,05,14,11.70
2018,06,18,05,15,11.70
2018,06,18,05,16,11.70
2018,06,18,05,17,11.70
2018,06,18,05,18,11.70
2018,06,18,05,19,11.70
2018,06,18,05,20,11.60
2018,06,18,05,21,11.60
2018,06,18,05,22,11.60
2018,06,18,05,23,11.60
2018,06,18,05,24,11.60
2018,06,18,05,25,11.60
2018,06,18,05,26,11.60
2018,06,18,05,27,11.60
2018,06,18,05,28,11.60
2018,06,18,05,29,11.60
2018,06,18,05,30,11.60
2018,06,18,05,31,11.60
2018,06,18,05,32,11.60
2018,06,18,05,33,11.50
2018,06,18,05,34,11.50
2018,06,18,05,35,11.50
2018,06,18,05,36,11.50
2018,06,18,05,37,11.40
2018,06,18,05,38,11.40
2018,06,18,05,39,11.40
2018,06,18,05,40,11.40
2018,06,18,05,41,11.40
2018,06,18,05,42,11.40
2018,06,18,05,43,11.40
2018,06,18,05,44,11.30
2018,06,18,05,45,11.30
2018,06,18,05,46,11.30
2018,06,18,05,47,11.30
2018,06,18,05,48,11.30
2018,06,18,05,49,11.30
2018,06,18,05,50,11.30
2018,06,18,05,51,11.30
2018,06,18,05,52,11.30
2018,06,18,05,53,11.30
2018,06,18,05,54,11.30
2018,06,18,05,55,11.30
2018,06,18,05,56,11.30
2018,06,18,05,57,11.30
2018,06,18,05,58,11.20
2018,06,18,05,59,11.20
2018,06,18,06,00,11.20
2018,06,18,06,01,11.20
2018,06,18,06,02,11.20
2018,06,18,06,03,11.20
2018,06,18,06,04,11.20
2018,06,18,06,05,11.20
2018,06,18,06,06,11.20
2018,06,18,06,07,11.20
2018,06,18,06,08,11.20
2018,06,18,06,09,11.20
2018,06,18,06,10,11.20
2018,06,18,06,11,11.20
2018,06,18,06,12,11.20
2018,06,18,06,13,11.20
2018,06,18,06,14,11.20
2018,06,18,06,15,11.20
2018,06,18,06,16,11.20
2018,06,18,06,17,11.20
2018,06,18,06,18,11.20
2018,06,18,06,19,11.20
2018,06,18,06,20,11.20
2018,06,18,06,21,11.20
2018,06,18,06,22,11.20
2018,06,18,06,23,11.20
2018,06,18,06,24,11.20
2018,06,18,06,25,11.20
2018,06,18,06,26,11.20
2018,06,18,06,27,11.20
2018,06,18,06,28,11.20
2018,06,18,06,29,11.20
2018,06,18,06,30,11.20
2018,06,18,06,31,11.20
2018,06,18,06,32,11.30
2018,06,18,06,33,11.30
2018,06,18,06,34,11.30
2018,06,18,06,35,11.30
2018,06,18,06,36,11.30
2018,06,18,06,37,11.30
2018,06,18,06,38,11.30
2018,06,18,06,39,11.30
2018,06,18,06,40,11.30
2018,06,18,06,41,11.30
2018,06,18,06,42,11.30
2018,06,18,06,43,11.30
2018,06,18,06,44,11.30
2018,06,18,06,45,11.40
2018,06,18,06,46,11.40
2018,06,18,06,47,11.40
2018,06,18,06,48,11.40
2018,06,18,06,49,11.40
2018,06,18,06,50,11.40
2018,06,18,06,51,11.50
2018,06,18,06,52,11.50
2018,06,18,06,53,11.50
2018,06,18,06,54,11.60
2018,06,18,06,55,11.60
2018,06,18,06,56,11.60
2018,06,18,06,57,11.60
2018,06,18,06,58,11.60
2018,06,18,06,59,11.60
2018,06,18,07,00,11.60
2018,06,18,07,01,11.70
2018,06,18,07,02,11.70
2018,06,18,07,03,11.70
2018,06,18,07,04,11.70
2018,06,18,07,05,11.80
2018,06,18,07,06,11.90
2018,06,18,07,07,11.90
2018,06,18,07,08,11.90
2018,06,18,07,09,12.00
2018,06,18,07,10,12.00
2018,06,18,07,11,12.10
2018,06,18,07,12,12.10
2018,06,18,07,13,12.20
2018,06,18,07,14,12.20
2018,06,18,07,15,12.20
2018,06,18,07,16,12.20
2018,06,18,07,17,12.30
2018,06,18,07,18,12.40
2018,06,18,07,19,12.50
2018,06,18,07,20,12.60
2018,06,18,07,21,12.70
2018,06,18,07,22,12.80
2018,06,18,07,23,12.90
2018,06,18,07,24,13.10
2018,06,18,07,25,13.20
2018,06,18,07,26,13.30
2018,06,18,07,27,13.50
2018,06,18,07,28,13.60
2018,06,18,07,29,13.70
2018,06,18,07,30,13.70
2018,06,18,07,31,13.80
2018,06,18,07,32,13.80
2018,06,18,07,33,13.90
2018,06,18,07,34,13.90
2018,06,18,07,35,13.90
2018,06,18,07,36,14.00
2018,06,18,07,37,14.00
2018,06,18,07,38,14.10
2018,06,18,07,39,14.10
2018,06,18,07,40,14.10
2018,06,18,07,41,14.20
2018,06,18,07,42,14.20
2018,06,18,07,43,14.30
2018,06,18,07,44,14.30
2018,06,18,07,45,14.40
2018,06,18,07,46,14.40
2018,06,18,07,47,14.50
2018,06,18,07,48,14.60
2018,06,18,07,49,14.60
2018,06,18,07,50,14.70
2018,06,18,07,51,14.70
2018,06,18,07,52,14.80
2018,06,18,07,53,14.90
2018,06,18,07,54,15.00
2018,06,18,07,55,15.00
2018,06,18,07,56,15.00
2018,06,18,07,57,15.00
2018,06,18,07,58,15.20
2018,06,18,07,59,15.30
2018,06,18,08,00,15.40
2018,06,18,08,01,15.60
2018,06,18,08,02,15.80
2018,06,18,08,03,15.90
2018,06,18,08,04,16.00
2018,06,18,08,05,16.20
2018,06,18,08,06,16.30
2018,06,18,08,07,16.50
2018,06,18,08,08,16.60
2018,06,18,08,09,16.80
2018,06,18,08,10,16.90
2018,06,18,08,11,17.00
2018,06,18,08,12,17.10
2018,06,18,08,13,17.20
2018,06,18,08,14,17.30
2018,06,18,08,15,17.40
2018,06,18,08,16,17.60
2018,06,18,08,17,17.70
2018,06,18,08,18,17.80
2018,06,18,08,19,17.90
2018,06,18,08,20,18.00
2018,06,18,08,21,18.10
2018,06,18,08,22,18.20
2018,06,18,08,23,18.30
2018,06,18,08,24,18.40
2018,06,18,08,25,18.50
2018,06,18,08,26,18.60
2018,06,18,08,27,18.70
2018,06,18,08,28,18.90
2018,06,18,08,29,19.00
2018,06,18,08,30,19.20
2018,06,18,08,31,19.30
2018,06,18,08,32,19.40
2018,06,18,08,33,19.60
2018,06,18,08,34,19.70
2018,06,18,08,35,19.80
2018,06,18,08,36,19.80
2018,06,18,08,37,19.90
2018,06,18,08,38,20.10
2018,06,18,08,39,20.20
2018,06,18,08,40,20.20
2018,06,18,08,41,20.30
2018,06,18,08,42,20.50
2018,06,18,08,43,20.60
2018,06,18,08,44,20.70
2018,06,18,08,45,20.80
2018,06,18,08,46,20.80
2018,06,18,08,47,20.80
2018,06,18,08,48,20.80
2018,06,18,08,49,20.80
2018,06,18,08,50,20.80
2018,06,18,08,51,20.90
2018,06,18,08,52,21.00
2018,06,18,08,53,21.10
2018,06,18,08,54,21.20
2018,06,18,08,55,21.40
2018,06,18,08,56,21.50
2018,06,18,08,57,21.60
2018,06,18,08,58,21.70
2018,06,18,08,59,21.80
2018,06,18,09,00,21.90
2018,06,18,09,01,22.00
2018,06,18,09,02,22.10
2018,06,18,09,03,22.20
2018,06,18,09,04,22.30
2018,06,18,09,05,22.40
2018,06,18,09,06,22.50
2018,06,18,09,07,22.50
2018,06,18,09,08,22.60
2018,06,18,09,09,22.60
2018,06,18,09,10,22.60
2018,06,18,09,11,22.60
2018,06,18,09,12,22.60
2018,06,18,09,13,22.70
2018,06,18,09,14,22.70
2018,06,18,09,15,22.80
2018,06,18,09,16,22.80
2018,06,18,09,17,22.90
2018,06,18,09,18,22.90
2018,06,18,09,19,23.00
2018,06,18,09,20,23.00
2018,06,18,09,21,23.10
2018,06,18,09,22,23.20
2018,06,18,09,23,23.20
2018,06,18,09,24,23.30
2018,06,18,09,25,23.30
2018,06,18,09,26,23.40
2018,06,18,09,27,23.40
2018,06,18,09,28,23.40
2018,06,18,09,29,23.50
2018,06,18,09,30,23.60
2018,06,18,09,31,23.60
2018,06,18,09,32,23.60
2018,06,18,09,33,23.60
2018,06,18,09,34,23.70
2018,06,18,09,35,23.70
2018,06,18,09,36,23.80
2018,06,18,09,37,23.90
2018,06,18,09,38,23.90
2018,06,18,09,39,24.00
2018,06,18,09,40,24.10
2018,06,18,09,41,24.10
2018,06,18,09,42,24.20
2018,06,18,09,43,24.20
2018,06,18,09,44,24.30
2018,06,18,09,45,24.40
2018,06,18,09,46,24.50
2018,06,18,09,47,24.50
2018,06,18,09,48,24.60
2018,06,18,09,49,24.60
2018,06,18,09,50,24.70
2018,06,18,09,51,24.70
2018,06,18,09,52,24.70
2018,06,18,09,53,24.70
2018,06,18,09,54,24.70
2018,06,18,09,55,24.70
2018,06,18,09,56,24.70
2018,06,18,09,57,24.70
2018,06,18,09,58,24.80
2018,06,18,09,59,24.80
2018,06,18,10,00,24.90
2018,06,18,10,01,25.00
2018,06,18,10,02,25.10
2018,06,18,10,03,25.20
2018,06,18,10,04,25.30
2018,06,18,10,05,25.40
2018,06,18,10,06,25.50
2018,06,18,10,07,25.60
2018,06,18,10,08,25.60
2018,06,18,10,09,25.80
2018,06,18,10,10,25.90
2018,06,18,10,11,26.00
2018,06,18,10,12,26.20
2018,06,18,10,13,26.30
2018,06,18,10,14,26.50
2018,06,18,10,15,26.60
2018,06,18,10,16,26.70
2018,06,18,10,17,26.70
2018,06,18,10,18,26.70
2018,06,18,10,19,26.70
2018,06,18,10,20,26.70
2018,06,18,10,21,26.70
2018,06,18,10,22,26.70
2018,06,18,10,23,26.70
2018,06,18,10,24,26.70
2018,06,18,10,25,26.80
2018,06,18,10,26,26.90
2018,06,18,10,27,26.90
2018,06,18,10,28,26.90
2018,06,18,10,29,26.90
2018,06,18,10,30,27.00
2018,06,18,10,31,27.10
2018,06,18,10,32,27.20
2018,06,18,10,33,27.20
2018,06,18,10,34,27.20
2018,06,18,10,35,27.20
2018,06,18,10,36,27.20
2018,06,18,10,37,27.20
2018,06,18,10,38,27.10
2018,06,18,10,39,27.10
2018,06,18,10,40,27.00
2018,06,18,10,41,26.90
2018,06,18,10,42,26.90
2018,06,18,10,43,26.80
2018,06,18,10,44,26.90
2018,06,18,10,45,26.90
2018,06,18,10,46,27.00
2018,06,18,10,47,27.10
2018,06,18,10,48,27.20
2018,06,18,10,49,27.20
2018,06,18,10,50,27.20
2018,06,18,10,51,27.10
2018,06,18,10,52,27.10
2018,06,18,10,53,27.00
2018,06,18,10,54,27.00
2018,06,18,10,55,26.90
2018,06,18,10,56,27.00
2018,06,18,10,57,27.00
2018,06,18,10,58,27.10
2018,06,18,10,59,27.20
2018,06,18,11,00,27.30
2018,06,18,11,01,27.40
2018,06,18,11,02,27.50
2018,06,18,11,03,27.60
2018,06,18,11,04,27.60
2018,06,18,11,05,27.70
2018,06,18,11,06,27.70
2018,06,18,11,07,27.70
2018,06,18,11,08,27.80
2018,06,18,11,09,27.80
2018,06,18,11,10,27.80
2018,06,18,11,11,27.90
2018,06,18,11,12,28.00
2018,06,18,11,13,28.10
2018,06,18,11,14,28.20
2018,06,18,11,15,28.20
2018,06,18,11,16,28.20
2018,06,18,11,17,28.20
2018,06,18,11,18,28.20
2018,06,18,11,19,28.10
2018,06,18,11,20,28.10
2018,06,18,11,21,28.10
2018,06,18,11,22,28.10
2018,06,18,11,23,28.00
2018,06,18,11,24,28.00
2018,06,18,11,25,28.10
2018,06,18,11,26,28.00
2018,06,18,11,27,28.00
2018,06,18,11,28,28.10
2018,06,18,11,29,28.10
2018,06,18,11,30,28.20
2018,06,18,11,31,28.20
2018,06,18,11,32,28.20
2018,06,18,11,33,28.20
2018,06,18,11,34,28.20
2018,06,18,11,35,28.30
2018,06,18,11,36,28.30
2018,06,18,11,37,28.40
2018,06,18,11,38,28.50
2018,06,18,11,39,28.50
2018,06,18,11,40,28.50
2018,06,18,11,41,28.40
2018,06,18,11,42,28.50
2018,06,18,11,43,28.50
2018,06,18,11,44,28.50
2018,06,18,11,45,28.50
2018,06,18,11,46,28.50
2018,06,18,11,47,28.60
2018,06,18,11,48,28.70
2018,06,18,11,49,28.70
2018,06,18,11,50,28.80
2018,06,18,11,51,28.80
2018,06,18,11,52,28.80
2018,06,18,11,53,28.90
2018,06,18,11,54,28.90
2018,06,18,11,55,28.90
2018,06,18,11,56,28.90
2018,06,18,11,57,29.00
2018,06,18,11,58,29.00
2018,06,18,11,59,28.90
2018,06,18,12,00,28.90
2018,06,18,12,01,28.80
2018,06,18,12,02,28.80
2018,06,18,12,03,28.80
2018,06,18,12,04,28.80
2018,06,18,12,05,28.80
2018,06,18,12,06,28.80
2018,06,18,12,07,28.80
2018,06,18,12,08,28.90
2018,06,18,12,09,28.90
2018,06,18,12,10,28.90
2018,06,18,12,11,29.00
2018,06,18,12,12,29.00
2018,06,18,12,13,29.10
2018,06,18,12,14,29.20
2018,06,18,12,15,29.20
2018,06,18,12,16,29.30
2018,06,18,12,17,29.30
2018,06,18,12,18,29.30
2018,06,18,12,19,29.30
2018,06,18,12,20,29.30
2018,06,18,12,21,29.40
2018,06,18,12,22,29.40
2018,06,18,12,23,29.50
2018,06,18,12,24,29.70
2018,06,18,12,25,29.70
2018,06,18,12,26,29.90
2018,06,18,12,27,30.00
2018,06,18,12,28,30.20
2018,06,18,12,29,30.30
2018,06,18,12,30,30.40
2018,06,18,12,31,30.40
2018,06,18,12,32,30.30
2018,06,18,12,33,30.30
2018,06,18,12,34,30.20
2018,06,18,12,35,30.10
2018,06,18,12,36,29.90
2018,06,18,12,37,29.90
2018,06,18,12,38,29.80
2018,06,18,12,39,29.70
2018,06,18,12,40,29.70
2018,06,18,12,41,29.70
2018,06,18,12,42,29.70
2018,06,18,12,43,29.80
2018,06,18,12,44,29.80
2018,06,18,12,45,29.90
2018,06,18,12,46,29.90
2018,06,18,12,47,29.90
2018,06,18,12,48,29.80
2018,06,18,12,49,29.80
2018,06,18,12,50,29.80
2018,06,18,12,51,29.80
2018,06,18,12,52,29.90
2018,06,18,12,53,30.00
2018,06,18,12,54,30.10
2018,06,18,12,55,30.20
2018,06,18,12,56,30.20
2018,06,18,12,57,30.20
2018,06,18,12,58,30.20
2018,06,18,12,59,30.10
2018,06,18,13,00,30.10
2018,06,18,13,01,30.10
2018,06,18,13,02,30.10
2018,06,18,13,03,30.10
2018,06,18,13,04,30.20
2018,06,18,13,05,30.30
2018,06,18,13,06,30.50
2018,06,18,13,07,30.50
2018,06,18,13,08,30.80
2018,06,18,13,09,30.90
2018,06,18,13,10,31.00
2018,06,18,13,11,31.20
2018,06,18,13,12,31.40
2018,06,18,13,13,31.50
2018,06,18,13,14,31.70
2018,06,18,13,15,31.90
2018,06,18,13,16,32.00
2018,06,18,13,17,32.00
2018,06,18,13,18,32.00
2018,06,18,13,19,32.00
2018,06,18,13,20,32.00
2018,06,18,13,21,31.90
2018,06,18,13,22,31.80
2018,06,18,13,23,31.80
2018,06,18,13,24,31.60
2018,06,18,13,25,31.60
2018,06,18,13,26,31.60
2018,06,18,13,27,31.60
2018,06,18,13,28,31.70
2018,06,18,13,29,31.70
2018,06,18,13,30,31.90
2018,06,18,13,31,31.90
2018,06,18,13,32,31.80
2018,06,18,13,33,31.80
2018,06,18,13,34,31.70
2018,06,18,13,35,31.70
2018,06,18,13,36,31.60
2018,06,18,13,37,31.60
2018,06,18,13,38,31.60
2018,06,18,13,39,31.60
2018,06,18,13,40,31.50
2018,06,18,13,41,31.50
2018,06,18,13,42,31.60
2018,06,18,13,43,31.60
2018,06,18,13,44,31.60
2018,06,18,13,45,31.60
2018,06,18,13,46,31.60
2018,06,18,13,47,31.60
2018,06,18,13,48,31.60
2018,06,18,13,49,31.60
2018,06,18,13,50,31.60
2018,06,18,13,51,31.70
2018,06,18,13,52,31.80
2018,06,18,13,53,31.80
2018,06,18,13,54,31.90
2018,06,18,13,55,32.10
2018,06,18,13,56,32.20
2018,06,18,13,57,32.30
2018,06,18,13,58,32.40
2018,06,18,13,59,32.50
2018,06,18,14,00,32.60
2018,06,18,14,01,32.60
2018,06,18,14,02,32.60
2018,06,18,14,03,32.50
2018,06,18,14,04,32.40
2018,06,18,14,05,32.20
2018,06,18,14,06,32.10
2018,06,18,14,07,32.10
2018,06,18,14,08,32.10
2018,06,18,14,09,32.20
2018,06,18,14,10,32.20
2018,06,18,14,11,32.30
2018,06,18,14,12,32.30
2018,06,18,14,13,32.30
2018,06,18,14,14,32.20
2018,06,18,14,15,32.10
2018,06,18,14,16,32.10
2018,06,18,14,17,32.00
2018,06,18,14,18,32.00
2018,06,18,14,19,32.00
2018,06,18,14,20,32.10
2018,06,18,14,21,32.10
2018,06,18,14,22,32.20
2018,06,18,14,23,32.20
2018,06,18,14,24,32.30
2018,06,18,14,25,32.30
2018,06,18,14,26,32.20
2018,06,18,14,27,32.20
2018,06,18,14,28,32.30
2018,06,18,14,29,32.20
2018,06,18,14,30,32.10
2018,06,18,14,31,32.10
2018,06,18,14,32,32.10
2018,06,18,14,33,32.10
2018,06,18,14,34,32.10
2018,06,18,14,35,32.10
2018,06,18,14,36,32.10
2018,06,18,14,37,32.10
2018,06,18,14,38,32.10
2018,06,18,14,39,32.10
2018,06,18,14,40,32.20
2018,06,18,14,41,32.30
2018,06,18,14,42,32.30
2018,06,18,14,43,32.30
2018,06,18,14,44,32.20
2018,06,18,14,45,32.10
2018,06,18,14,46,32.00
2018,06,18,14,47,32.00
2018,06,18,14,48,31.90
2018,06,18,14,49,31.90
2018,06,18,14,50,31.90
2018,06,18,14,51,31.90
2018,06,18,14,52,31.90
2018,06,18,14,53,31.90
2018,06,18,14,54,31.90
2018,06,18,14,55,32.00
2018,06,18,14,56,32.10
2018,06,18,14,57,32.10
2018,06,18,14,58,32.00
2018,06,18,14,59,32.00
2018,06,18,15,00,32.00
2018,06,18,15,01,32.00
2018,06,18,15,02,31.90
2018,06,18,15,03,31.70
2018,06,18,15,04,31.60
2018,06,18,15,05,31.60
2018,06,18,15,06,31.60
2018,06,18,15,07,31.60
2018,06,18,15,08,31.60
2018,06,18,15,09,31.70
2018,06,18,15,10,31.80
2018,06,18,15,11,31.90
2018,06,18,15,12,31.90
2018,06,18,15,13,32.00
2018,06,18,15,14,32.00
2018,06,18,15,15,32.00
2018,06,18,15,16,32.00
2018,06,18,15,17,32.00
2018,06,18,15,18,32.10
2018,06,18,15,19,32.10
2018,06,18,15,20,32.10
2018,06,18,15,21,32.20
2018,06,18,15,22,32.30
2018,06,18,15,23,32.30
2018,06,18,15,24,32.30
2018,06,18,15,25,32.30
2018,06,18,15,26,32.30
2018,06,18,15,27,32.20
2018,06,18,15,28,32.20
2018,06,18,15,29,32.20
2018,06,18,15,30,32.20
2018,06,18,15,31,32.20
2018,06,18,15,32,32.20
2018,06,18,15,33,32.20
2018,06,18,15,34,32.10
2018,06,18,15,35,32.10
2018,06,18,15,36,32.00
2018,06,18,15,37,32.00
2018,06,18,15,38,31.90
2018,06,18,15,39,31.90
2018,06,18,15,40,31.90
2018,06,18,15,41,31.90
2018,06,18,15,42,31.90
2018,06,18,15,43,31.90
2018,06,18,15,44,31.90
2018,06,18,15,45,32.00
2018,06,18,15,46,32.10
2018,06,18,15,47,32.10
2018,06,18,15,48,32.10
2018,06,18,15,49,32.10
2018,06,18,15,50,32.10
2018,06,18,15,51,32.10
2018,06,18,15,52,32.10
2018,06,18,15,53,32.20
2018,06,18,15,54,32.20
2018,06,18,15,55,32.20
2018,06,18,15,56,32.20
2018,06,18,15,57,32.20
2018,06,18,15,58,32.20
2018,06,18,15,59,32.20
2018,06,18,16,00,32.20
2018,06,18,16,01,32.20
2018,06,18,16,02,32.20
2018,06,18,16,03,32.20
2018,06,18,16,04,32.20
2018,06,18,16,05,32.20
2018,06,18,16,06,32.20
2018,06,18,16,07,32.20
2018,06,18,16,08,32.20
2018,06,18,16,09,32.20
2018,06,18,16,10,32.20
2018,06,18,16,11,32.20
2018,06,18,16,12,32.20
2018,06,18,16,13,32.20
2018,06,18,16,14,32.10
2018,06,18,16,15,32.10
2018,06,18,16,16,32.10
2018,06,18,16,17,32.10
2018,06,18,16,18,32.20
2018,06,18,16,19,32.20
2018,06,18,16,20,32.20
2018,06,18,16,21,32.30
2018,06,18,16,22,32.30
2018,06,18,16,23,32.30
2018,06,18,16,24,32.30
2018,06,18,16,25,32.40
2018,06,18,16,26,32.30
2018,06,18,16,27,32.30
2018,06,18,16,28,32.30
2018,06,18,16,29,32.30
2018,06,18,16,30,32.30
2018,06,18,16,31,32.30
2018,06,18,16,32,32.30
2018,06,18,16,33,32.30
2018,06,18,16,34,32.30
2018,06,18,16,35,32.30
2018,06,18,16,36,32.30
2018,06,18,16,37,32.30
2018,06,18,16,38,32.30
2018,06,18,16,39,32.30
2018,06,18,16,40,32.40
2018,06,18,16,41,32.40
2018,06,18,16,42,32.40
2018,06,18,16,43,32.50
2018,06,18,16,44,32.50
2018,06,18,16,45,32.50
2018,06,18,16,46,32.60
2018,06,18,16,47,32.50
2018,06,18,16,48,32.50
2018,06,18,16,49,32.50
2018,06,18,16,50,32.50
2018,06,18,16,51,32.60
2018,06,18,16,52,32.60
2018,06,18,16,53,32.60
2018,06,18,16,54,32.60
2018,06,18,16,55,32.60
2018,06,18,16,56,32.60
2018,06,18,16,57,32.70
2018,06,18,16,58,32.80
2018,06,18,16,59,32.90
2018,06,18,17,00,33.00
2018,06,18,17,01,33.00
2018,06,18,17,02,33.10
2018,06,18,17,03,33.20
2018,06,18,17,04,33.30
2018,06,18,17,05,33.30
2018,06,18,17,06,33.20
2018,06,18,17,07,33.20
2018,06,18,17,08,33.30
2018,06,18,17,09,33.30
2018,06,18,17,10,33.30
2018,06,18,17,11,33.30
2018,06,18,17,12,33.30
2018,06,18,17,13,33.40
2018,06,18,17,14,33.50
2018,06,18,17,15,33.60
2018,06,18,17,16,33.70
2018,06,18,17,17,33.90
2018,06,18,17,18,34.00
2018,06,18,17,19,34.10